MPEC 2014-B61 : 2014 BX32
The following Minor Planet Electronic Circular may be linked-to from your own Web pages, but must not otherwise be redistributed electronically.A form allowing access to any MPEC is at the bottom of this page.


M.P.E.C. 2014-B61 Issued 2014 Jan. 28, 19:27 UT The Minor Planet Electronic Circulars contain information on unusual minor planets and routine data on comets. They are published on behalf of Commission 20 of the International Astronomical Union by the Minor Planet Center, Smithsonian Astrophysical Observatory, Cambridge, MA 02138, U.S.A. Prepared using the Tamkin Foundation Computer Network MPC@CFA.HARVARD.EDU URL https://www.minorplanetcenter.net/ ISSN 1523-6714 2014 BX32 Observations: K14B32X* C2014 01 24.37724 09 21 23.768+16 23 08.49 21.5 wLEB061F51 K14B32X C2014 01 24.39041 09 21 21.789+16 23 01.99 21.7 wLEB061F51 K14B32X C2014 01 24.40360 09 21 19.810+16 22 55.84 21.5 wLEB061F51 K14B32X C2014 01 24.41682 09 21 17.803+16 22 49.32 21.6 wLEB061F51 K14B32X KC2014 01 25.04973609 19 44.49 +16 17 48.0 21.3 VqEB061K92 K14B32X KC2014 01 25.05775409 19 43.27 +16 17 44.0 21.7 VqEB061K92 K14B32X KC2014 01 25.06689609 19 41.88 +16 17 39.4 22.0 VqEB061K92 K14B32X KC2014 01 28.18704 09 11 38.74 +15 49 54.7 20.2 RoEB061291 K14B32X KC2014 01 28.19045 09 11 38.18 +15 49 53.4 20.9 RoEB061291 K14B32X KC2014 01 28.19385 09 11 37.62 +15 49 51.6 oEB061291 K14B32X _C2014 01 28.31218509 11 18.464+15 48 49.70 20.2 RtEB061568 K14B32X _C2014 01 28.31471109 11 18.043+15 48 48.31 20.2 RtEB061568 Observer details: 291 LPL/Spacewatch II. Observer R. A. Mastaler. 1.8-m f/2.7 reflector + CCD. 568 Mauna Kea. Observers R. J. Wainscoat, D. Woodworth. Measurers M. Micheli, R. J. Wainscoat. 3.6-m Canada-France-Hawaii Telescope + CCD. F51 Pan-STARRS 1, Haleakala. Observers N. Primak, A. Schultz, T. Goggia, M. Willman. Measurer PS1 Science Consortium. 1.8-m Ritchey-Chretien + CCD. K92 Sutherland-LCOGT B. Observer T. Lister. 1.0-m f/8 Ritchey-Chretien + CCD. Orbital elements: 2014 BX32 Earth MOID = 0.0776 AU Epoch 2013 Nov. 4.0 TT = JDT 2456600.5 MPC M 209.65486 (2000.0) P Q n 0.67412256 Peri. 311.28342 -0.13688400 +0.97496613 a 1.2881808 Node 309.96573 -0.82673395 -0.20988424 e 0.3644820 Incl. 13.21615 -0.54568649 +0.07341425 P 1.46 H 21.3 G 0.15 U 8 Residuals in seconds of arc 140124 F51 0.0 0.1+ 140125 K92 0.1- 0.1- 140128 291 0.1- 0.1+ 140124 F51 0.0 0.1- 140125 K92 0.0 0.0 140128 291 0.0 0.1+ 140124 F51 0.1+ 0.1+ 140125 K92 0.2+ 0.1+ 140128 568 0.2+ 0.2+ 140124 F51 0.1- 0.1- 140128 291 0.2- 0.4- 140128 568 0.2+ 0.1+ Ephemeris: 2014 BX32 a,e,i = 1.29, 0.36, 13 q = 0.8187 Date TT R. A. (2000) Decl. Delta r Elong. Phase V 2013 12 29 09 55 44.4 +19 16 04 0.7466 1.5863 132.5 27.2 22.9 ... 2014 01 13 09 43 09.6 +17 44 59 0.5969 1.5304 150.2 18.6 22.1 ... 2014 01 21 09 29 01.4 +16 49 44 0.5316 1.4974 161.3 12.1 21.5 ... 2014 01 27 09 14 47.7 +16 00 46 0.4911 1.4713 170.5 6.3 21.1 2014 01 28 09 12 08.3 +15 51 45 0.4851 1.4668 172.1 5.3 21.0 2014 01 29 09 09 24.4 +15 42 28 0.4793 1.4623 173.7 4.3 20.9 ... 2014 02 04 08 51 38.8 +14 40 25 0.4498 1.4346 175.4 3.2 20.7 ... 2014 02 12 08 25 45.9 +13 00 09 0.4241 1.3959 161.6 12.9 20.9 ... 2014 02 27 07 40 22.5 +09 15 46 0.4126 1.3182 135.9 31.5 21.3 A. U. Tomatic (C) Copyright 2014 MPC M.P.E.C. 2014-B61


Enter an MPEC number in one of the following forms:
- 1997-B01 (the full form)
- J97B01 (the packed version of the full form)
- B01 (the abbreviated form)